TimePST,TemperatureF,Dew PointF,Humidity,Sea Level PressureIn,VisibilityMPH,Wind Direction,Wind SpeedMPH,Gust SpeedMPH,PrecipitationIn,Events,Conditions,WindDirDegrees,DateUTC
12:15 AM,48.2,44.6,87,30.13,10.0,North,-9999.0,-,N/A,,Overcast,0,2013-11-08 08:15:00
12:35 AM,48.2,44.6,87,30.14,10.0,North,-9999.0,-,N/A,,Overcast,0,2013-11-08 08:35:00
12:55 AM,48.2,44.6,87,30.15,10.0,North,-9999.0,-,N/A,,Overcast,0,2013-11-08 08:55:00
1:15 AM,48.2,44.6,87,30.15,10.0,North,-9999.0,-,N/A,,Overcast,0,2013-11-08 09:15:00
1:35 AM,48.2,44.6,87,30.15,10.0,North,-9999.0,-,N/A,,Overcast,0,2013-11-08 09:35:00
1:55 AM,48.2,44.6,87,30.16,10.0,North,-9999.0,-,N/A,,Overcast,0,2013-11-08 09:55:00
2:15 AM,48.2,44.6,87,30.16,10.0,North,-9999.0,-,N/A,,Overcast,0,2013-11-08 10:15:00
2:35 AM,48.2,44.6,87,30.16,10.0,North,-9999.0,-,N/A,,Mostly Cloudy,0,2013-11-08 10:35:00
2:55 AM,48.2,44.6,87,30.17,10.0,North,-9999.0,-,N/A,,Overcast,0,2013-11-08 10:55:00
3:15 AM,48.2,44.6,87,30.17,10.0,North,-9999.0,-,N/A,,Overcast,0,2013-11-08 11:15:00
3:35 AM,46.4,44.6,93,30.17,10.0,North,-9999.0,-,N/A,,Overcast,0,2013-11-08 11:35:00
3:55 AM,46.4,44.6,93,30.17,10.0,North,-9999.0,-,N/A,,Overcast,0,2013-11-08 11:55:00
4:15 AM,46.4,42.8,87,30.16,10.0,North,-9999.0,-,N/A,,Mostly Cloudy,0,2013-11-08 12:15:00
4:35 AM,46.4,42.8,87,30.17,10.0,North,-9999.0,-,N/A,,Mostly Cloudy,0,2013-11-08 12:35:00
4:55 AM,46.4,42.8,87,30.17,10.0,North,-9999.0,-,N/A,,Overcast,0,2013-11-08 12:55:00
5:15 AM,46.4,42.8,87,30.18,10.0,North,-9999.0,-,N/A,,Overcast,0,2013-11-08 13:15:00
5:35 AM,46.4,42.8,87,30.18,10.0,North,-9999.0,-,N/A,,Mostly Cloudy,0,2013-11-08 13:35:00
5:55 AM,46.4,42.8,87,30.19,10.0,North,-9999.0,-,N/A,,Overcast,0,2013-11-08 13:55:00
6:15 AM,46.4,42.8,87,30.19,10.0,North,-9999.0,-,N/A,,Overcast,0,2013-11-08 14:15:00
6:35 AM,46.4,42.8,87,30.19,10.0,North,-9999.0,-,N/A,,Overcast,0,2013-11-08 14:35:00
6:55 AM,46.4,42.8,87,30.19,10.0,North,-9999.0,-,N/A,,Mostly Cloudy,0,2013-11-08 14:55:00
7:15 AM,46.4,42.8,87,30.19,10.0,North,-9999.0,-,N/A,,Overcast,0,2013-11-08 15:15:00
7:35 AM,46.4,42.8,87,30.20,10.0,North,-9999.0,-,N/A,,Mostly Cloudy,0,2013-11-08 15:35:00
7:55 AM,46.4,42.8,87,30.20,10.0,North,-9999.0,-,N/A,,Overcast,0,2013-11-08 15:55:00
8:15 AM,48.2,42.8,82,30.22,6.0,North,-9999.0,-,0.01,,Overcast,0,2013-11-08 16:15:00
8:35 AM,48.2,44.6,87,30.21,5.0,North,-9999.0,-,0.03,,Overcast,0,2013-11-08 16:35:00
8:55 AM,48.2,44.6,87,30.22,10.0,North,-9999.0,-,0.03,,Overcast,0,2013-11-08 16:55:00
9:15 AM,48.2,44.6,87,30.22,10.0,North,-9999.0,-,N/A,,Mostly Cloudy,0,2013-11-08 17:15:00
9:35 AM,48.2,44.6,87,30.22,10.0,North,-9999.0,-,N/A,,Overcast,0,2013-11-08 17:35:00
9:55 AM,48.2,44.6,87,30.22,8.0,North,-9999.0,-,N/A,,Overcast,0,2013-11-08 17:55:00
10:15 AM,50.0,44.6,82,30.22,10.0,North,-9999.0,-,N/A,,Overcast,0,2013-11-08 18:15:00
10:35 AM,50.0,44.6,82,30.22,10.0,North,-9999.0,-,N/A,,Overcast,0,2013-11-08 18:35:00
10:55 AM,51.8,44.6,76,30.22,10.0,North,-9999.0,-,N/A,,Overcast,0,2013-11-08 18:55:00
11:15 AM,51.8,44.6,76,30.22,10.0,North,-9999.0,-,N/A,,Mostly Cloudy,0,2013-11-08 19:15:00
11:35 AM,51.8,44.6,76,30.21,10.0,North,-9999.0,-,N/A,,Mostly Cloudy,0,2013-11-08 19:35:00
11:55 AM,51.8,44.6,76,30.21,10.0,North,-9999.0,-,N/A,,Mostly Cloudy,0,2013-11-08 19:55:00
12:15 PM,51.8,44.6,76,30.20,10.0,North,-9999.0,-,N/A,,Overcast,0,2013-11-08 20:15:00
12:35 PM,51.8,42.8,71,30.20,10.0,North,-9999.0,-,N/A,,Overcast,0,2013-11-08 20:35:00
12:55 PM,51.8,44.6,76,30.19,7.0,North,-9999.0,-,0.03,,Mostly Cloudy,0,2013-11-08 20:55:00
1:15 PM,51.8,44.6,76,30.19,10.0,North,-9999.0,-,0.01,,Mostly Cloudy,0,2013-11-08 21:15:00
1:35 PM,51.8,44.6,76,30.19,10.0,North,-9999.0,-,0.01,,Overcast,0,2013-11-08 21:35:00
1:55 PM,51.8,44.6,76,30.19,10.0,North,-9999.0,-,0.01,,Overcast,0,2013-11-08 21:55:00
2:15 PM,51.8,44.6,76,30.19,10.0,North,-9999.0,-,N/A,,Overcast,0,2013-11-08 22:15:00
2:35 PM,51.8,44.6,76,30.19,10.0,North,-9999.0,-,N/A,,Overcast,0,2013-11-08 22:35:00
2:55 PM,51.8,44.6,76,30.19,10.0,North,-9999.0,-,N/A,,Overcast,0,2013-11-08 22:55:00
3:15 PM,51.8,44.6,76,30.19,10.0,North,-9999.0,-,N/A,,Overcast,0,2013-11-08 23:15:00
3:35 PM,51.8,44.6,76,30.19,10.0,North,-9999.0,-,N/A,,Overcast,0,2013-11-08 23:35:00
3:55 PM,50.0,44.6,82,30.19,10.0,North,-9999.0,-,N/A,,Overcast,0,2013-11-08 23:55:00
4:15 PM,50.0,44.6,82,30.19,10.0,North,-9999.0,-,N/A,,Overcast,0,2013-11-09 00:15:00
4:35 PM,50.0,44.6,82,30.19,10.0,North,-9999.0,-,N/A,,Overcast,0,2013-11-09 00:35:00
4:55 PM,50.0,44.6,82,30.19,10.0,North,-9999.0,-,N/A,,Overcast,0,2013-11-09 00:55:00
5:15 PM,48.2,44.6,87,30.19,10.0,North,-9999.0,-,N/A,,Overcast,0,2013-11-09 01:15:00
5:35 PM,48.2,44.6,87,30.19,10.0,North,-9999.0,-,N/A,,Overcast,0,2013-11-09 01:35:00
5:55 PM,48.2,44.6,87,30.18,10.0,North,-9999.0,-,N/A,,Overcast,0,2013-11-09 01:55:00
6:15 PM,48.2,44.6,87,30.19,10.0,North,-9999.0,-,N/A,,Overcast,0,2013-11-09 02:15:00
6:35 PM,48.2,44.6,87,30.19,10.0,North,-9999.0,-,N/A,,Overcast,0,2013-11-09 02:35:00
6:55 PM,48.2,42.8,82,30.19,10.0,North,-9999.0,-,N/A,,Overcast,0,2013-11-09 02:55:00
7:15 PM,48.2,44.6,87,30.19,10.0,North,-9999.0,-,N/A,,Overcast,0,2013-11-09 03:15:00
7:35 PM,48.2,42.8,82,30.19,10.0,North,-9999.0,-,N/A,,Overcast,0,2013-11-09 03:35:00
7:55 PM,48.2,42.8,82,30.19,10.0,North,-9999.0,-,N/A,,Overcast,0,2013-11-09 03:55:00
8:15 PM,46.4,42.8,87,30.19,10.0,North,-9999.0,-,N/A,,Mostly Cloudy,0,2013-11-09 04:15:00
8:35 PM,46.4,42.8,87,30.19,10.0,North,-9999.0,-,N/A,,Clear,0,2013-11-09 04:35:00
8:55 PM,44.6,41.0,87,30.19,10.0,North,-9999.0,-,N/A,,Clear,0,2013-11-09 04:55:00
9:15 PM,44.6,41.0,87,30.19,10.0,North,-9999.0,-,N/A,,Clear,0,2013-11-09 05:15:00
9:35 PM,44.6,41.0,87,30.19,10.0,North,-9999.0,-,N/A,,Clear,0,2013-11-09 05:35:00
9:55 PM,42.8,39.2,87,30.20,10.0,North,-9999.0,-,N/A,,Clear,0,2013-11-09 05:55:00
10:15 PM,42.8,39.2,87,30.20,10.0,North,-9999.0,-,N/A,,Clear,0,2013-11-09 06:15:00
10:35 PM,42.8,39.2,87,30.19,10.0,North,-9999.0,-,N/A,,Clear,0,2013-11-09 06:35:00
10:55 PM,42.8,37.4,81,30.19,10.0,North,-9999.0,-,N/A,,Clear,0,2013-11-09 06:55:00
11:15 PM,41.0,37.4,87,30.18,5.0,North,-9999.0,-,N/A,,Clear,0,2013-11-09 07:15:00
11:35 PM,39.2,37.4,93,30.18,1.0,North,-9999.0,-,N/A,,Clear,0,2013-11-09 07:35:00
11:55 PM,41.0,37.4,87,30.18,5.0,North,-9999.0,-,N/A,,Clear,0,2013-11-09 07:55:00